This is the latest recevied weather packets stored in our database for station/object IR9AK-10. If no packets are shown the sender has not sent any weather packets the latest 10 day(s).
| Time | Temp. | Humidity | Pressure | Rain* | Wind** | Luminosity | Snow |
|---|---|---|---|---|---|---|---|
| 1788009637 | 46.11° C | 24% | 1062.3 hPa | - | - | - | - |
| 1788009038 | 45.56° C | 25% | 1062.3 hPa | - | - | - | - |
| 1788008439 | 45.56° C | 32% | 1062.3 hPa | - | - | - | - |
| 1788007839 | 45° C | 34% | 1062.5 hPa | - | - | - | - |
| 1788007240 | 45.56° C | 30% | 1062.3 hPa | - | - | - | - |
| 1788006641 | 45.56° C | 30% | 1062.4 hPa | - | - | - | - |
| 1788006550 | 45° C | 31% | 1062.6 hPa | - | - | - | - |
| 1788006041 | 45° C | 31% | 1062.6 hPa | - | - | - | - |
| 1788005442 | 45.56° C | 30% | 1062.1 hPa | - | - | - | - |
| 1788004844 | 45.56° C | 33% | 1062.4 hPa | - | - | - | - |
| 1788004244 | 45° C | 34% | 1062.4 hPa | - | - | - | - |
| 1788003646 | 44.44° C | 35% | 1062.3 hPa | - | - | - | - |
| 1788003047 | 44.44° C | 35% | 1062.4 hPa | - | - | - | - |
| 1788002448 | 43.89° C | 35% | 1062.6 hPa | - | - | - | - |
| 1788001849 | 43.89° C | 37% | 1062.7 hPa | - | - | - | - |
| 1788001251 | 179.44° C | 37% | 1062.6 hPa | - | - | - | - |
| 1788000652 | 43.89° C | 39% | 1062.6 hPa | - | - | - | - |
| 1788000052 | 43.89° C | 41% | 1062.5 hPa | - | - | - | - |
| 1787999453 | 43.33° C | 42% | 1062.6 hPa | - | - | - | - |
| 1787998854 | 42.78° C | 42% | 1062.6 hPa | - | - | - | - |
| 1787998254 | 42.78° C | 42% | 1062.2 hPa | - | - | - | - |
| 1787997656 | 42.78° C | 42% | 1062.3 hPa | - | - | - | - |
| 1787997058 | 42.78° C | 42% | 1062.3 hPa | - | - | - | - |
| 1787996459 | 42.78° C | 39% | 1062.1 hPa | - | - | - | - |
| 1787995861 | 42.78° C | 39% | 1062.1 hPa | - | - | - | - |
* Rain since midnight (hover to see other rain measurements)
** Current wind speed in m/s (hover to see current wind gust speed)